Trapani Birgi current weather conditions

sailwx.info

Wind from 180 at 11 knots

Air temperature 31.0° C
Dewpoint 9.0° C

Last reported at 2015-May-06 13:55 UTC.
Time now 2015-May-06 16:31 UTC

Location: N 37°55' E 012°29'.
View on Google Maps.

See reports from other nearby stations

  
Tides and Currents Weather Stations Pressure Air Temp Water Temp Dewpoint Dewpoint Depression Visibility Wind Speed Wind Dir Waves Ship Positions
date/time (UTC)wind fromknots sea level pressurealtimeterstation pressurevisibilityair tempwater tempwave heightnotes
2015-May-06 14:55 210 16 25.0
2015-May-06 13:55 180 11 31.0
2015-May-06 12:55 200 13 31.0
2015-May-06 11:55 180 12 34.0
2015-May-06 10:55 160 11 33.0
2015-May-06 09:55 160 11 33.0
2015-May-06 08:55 140 13 32.0
2015-May-06 07:55 140 12 29.0
2015-May-06 06:55 120 9 25.0
2015-May-06 05:55 120 6 21.0
2015-May-06 04:55 110 5 19.0
2015-May-06 03:55 110 5 20.0
2015-May-06 02:55 140 11 19.0
2015-May-05 23:55 130 8 20.0
2015-May-05 22:55 180 8 20.0
2015-May-05 21:55 190 5 21.0
2015-May-05 20:55 160 8 23.0
2015-May-05 19:55 140 11 23.0
2015-May-05 18:55 150 7 23.0
2015-May-05 17:55 150 9 25.0
2015-May-05 16:55 160 14 28.0
2015-May-05 15:55 160 12 30.0
2015-May-05 14:55 160 15 31.0
2015-May-05 13:55 160 16 33.0
2015-May-05 12:55 160 17 33.0
2015-May-05 11:55 150 19 33.0
2015-May-05 10:55 160 19 32.0
2015-May-05 09:55 160 16 32.0
2015-May-05 08:55 150 20 30.0
2015-May-05 07:55 140 17 28.0
2015-May-05 06:55 140 14 25.0
2015-May-05 05:55 130 11 23.0
2015-May-05 04:55 140 12 21.0
2015-May-05 03:55 140 13 20.0
2015-May-05 02:55 130 9 20.0
2015-May-05 01:55 130 10 20.0
2015-May-05 00:55 130 8 21.0
2015-May-04 23:55 140 12 21.0
2015-May-04 22:55 130 11 22.0
2015-May-04 21:55 150 8 23.0
2015-May-04 20:55 140 15 23.0
2015-May-04 19:55 140 16 23.0
2015-May-04 18:55 140 15 23.0
2015-May-04 17:55 140 17 25.0
2015-May-04 16:55 140 15 27.0